Weather History for Kenai, AK

Change the Weather History Date:

Saturday, December 1, 2012

  Actual Average Record
Temperature  
Mean Temperature 6 °F -  
Max Temperature 19 °F 24 °F 43 °F (1992)
Min Temperature -6 °F 8 °F -30 °F (1990)
Degree Days  
Heating Degree Days 58    
Moisture  
Dew Point -3 °F    
Average Humidity 63    
Maximum Humidity 80    
Minimum Humidity 44    
Precipitation  
Precipitation 0.00 in - - ()
Sea Level Pressure  
Sea Level Pressure 29.54 in    
Wind  
Wind Speed 4 mph (NNE)    
Max Wind Speed 10 mph    
Max Gust Speed -    
Visibility 10 miles    
Events      
Averages and records for this station are not official NWS values.
T = Trace of Precipitation, MM = Missing Value Source: NWS Daily Summary

Daily Weather History Graph

Daily Weather History Graph

Search for Another Location

Airport:

Trip Planner

Search our weather history database for the weather conditions in past years. The results will help you decide how hot, cold, wet, or windy it might be!

Date:

Astronomy

Dec. 01, 2012 Rise Set
Actual Time 9:46 AM AKST 4:01 PM AKST
Civil Twilight 8:50 AM AKST 4:57 PM AKST
Nautical Twilight 7:53 AM AKST 5:54 PM AKST
Astronomical Twilight 7:02 AM AKST 6:45 PM AKST
Moon 7:20 PM AKST (12/1) 11:50 AM AKST (12/1)
Length of Visible Light 8h 07m
Length of Day
6h 15m
Waning Gibbous, 91% of the Moon is Illuminated
Dec 1
Waning Gibbous
Dec 6
Last Quarter
Dec 12
New
Dec 19
First Quarter
Dec 28
Full

Hourly Weather History & Observations

Time (AKST) Temp. Windchill Dew Point Humidity Pressure Visibility Wind Dir Wind Speed Gust Speed Precip Events Conditions
12:53 AM 19.9 °F 8.6 °F 1.0 °F 44% 29.62 in 10.0 mi NNE 10.4 mph - N/A   Clear
1:53 AM 18.0 °F 8.7 °F 3.0 °F 52% 29.61 in 10.0 mi North 6.9 mph - N/A   Clear
3:53 AM 17.1 °F 10.0 °F -0.9 °F 45% 29.60 in 10.0 mi NE 4.6 mph - N/A   Clear
4:53 AM 16.0 °F 10.4 °F -0.0 °F 49% 29.58 in 10.0 mi North 3.5 mph - N/A   Clear
5:53 AM 9.0 °F -3.2 °F 1.0 °F 70% 29.58 in 10.0 mi SW 8.1 mph - N/A   Clear
6:53 AM 14.0 °F 6.5 °F -0.0 °F 54% 29.57 in 10.0 mi ESE 4.6 mph - N/A   Clear
7:53 AM 12.0 °F - 1.0 °F 61% 29.56 in 10.0 mi Calm Calm - N/A   Clear
8:53 AM 7.0 °F - -2.9 °F 64% 29.56 in 10.0 mi Calm Calm - N/A   Clear
9:53 AM 6.1 °F - -4.0 °F 63% 29.56 in 10.0 mi Calm Calm - N/A   Clear
10:53 AM 5.0 °F - -4.0 °F 66% 29.55 in 10.0 mi Calm Calm - N/A   Clear
11:53 AM 7.0 °F - -4.0 °F 61% 29.55 in 10.0 mi Calm Calm - N/A   Clear
12:53 PM 10.9 °F - -0.9 °F 59% 29.54 in 10.0 mi Calm Calm - N/A   Clear
1:53 PM 14.0 °F - -0.9 °F 52% 29.52 in 10.0 mi Calm Calm - N/A   Clear
2:53 PM 15.1 °F - -0.0 °F 51% 29.52 in 9.0 mi Calm Calm - N/A   Clear
3:53 PM 8.1 °F - -2.0 °F 64% 29.51 in 10.0 mi Calm Calm - N/A   Clear
4:53 PM 6.1 °F -2.8 °F -2.9 °F 67% 29.50 in 10.0 mi Variable 4.6 mph - N/A   Clear
5:53 PM 3.0 °F - -5.1 °F 69% 29.50 in 10.0 mi Calm Calm - N/A   Clear
6:53 PM -2.0 °F - -8.0 °F 76% 29.50 in 10.0 mi Calm Calm - N/A   Clear
7:53 PM -4.0 °F - -9.9 °F 76% 29.50 in 10.0 mi Calm Calm - N/A   Clear
8:53 PM -4.0 °F - -9.9 °F 76% 29.49 in 10.0 mi Calm Calm - N/A   Clear
9:53 PM -5.1 °F -13.6 °F -9.9 °F 80% 29.47 in 10.0 mi ENE 3.5 mph - N/A   Clear
10:53 PM -6.0 °F -14.7 °F -11.0 °F 79% 29.47 in 10.0 mi Variable 3.5 mph - N/A   Clear
11:53 PM -5.1 °F - -9.9 °F 80% 29.46 in 10.0 mi Calm Calm - N/A   Clear